H1 CPF 2 NER 2024 6 21 9 173 01 glonass146 H2 2216101 9146 54377 2024 6 21 0 0 0 2024 6 24 23 45 0 900 1 1 0 0 0 1 H9 10 0 60482 0.00000 0 -3993468.959 18565613.430 17024303.145 10 0 60482 900.00000 0 -5034220.068 20225454.781 14692815.843 10 0 60482 1800.00000 0 -5792837.850 21696857.646 12075692.811 10 0 60482 2700.00000 0 -6286383.465 22921369.418 9223715.231 10 0 60482 3600.00000 0 -6543174.927 23847257.269 6192281.594 10 0 60482 4500.00000 0 -6601338.421 24431690.534 3040330.980 10 0 60482 5400.00000 0 -6506945.158 24642570.465 -170807.306 10 0 60482 6300.00000 0 -6311813.152 24459928.858 -3378614.857 10 0 60482 7200.00000 0 -6071067.917 23876835.088 -6520611.684 10 0 60482 8100.00000 0 -5840566.729 22899771.991 -9535585.021 10 0 60482 9000.00000 0 -5674297.109 21548463.673 -12364794.122 10 0 60482 9900.00000 0 -5621861.427 19855161.805 -14953126.153 10 0 60482 10800.00000 0 -5726155.814 17863420.163 -17250179.478 10 0 60482 11700.00000 0 -6021343.159 15626408.998 -19211252.262 10 0 60482 12600.00000 0 -6531207.173 13204840.409 -20798216.513 10 0 60482 13500.00000 0 -7267958.012 10664592.230 -21980260.332 10 0 60482 14400.00000 0 -8231540.495 8074130.435 -22734484.064 10 0 60482 15300.00000 0 -9409474.355 5501838.280 -23046339.195 10 0 60482 16200.00000 0 -10777233.285 3013363.806 -22909902.198 10 0 60482 17100.00000 0 -12299146.706 669096.122 -22327978.833 10 0 60482 18000.00000 0 -13929786.093 -1478124.987 -21312037.793 10 0 60482 18900.00000 0 -15615777.374 -3384971.807 -19881975.872 10 0 60482 19800.00000 0 -17297963.183 -5019183.579 -18065720.008 10 0 60482 20700.00000 0 -18913824.103 -6360650.553 -15898674.599 10 0 60482 21600.00000 0 -20400057.419 -7401984.173 -13423025.374 10 0 60482 22500.00000 0 -21695205.438 -8148551.909 -10686913.719 10 0 60482 23400.00000 0 -22742223.453 -8617977.564 -7743497.805 10 0 60482 24300.00000 0 -23490880.132 -8839130.233 -4649918.898 10 0 60482 25200.00000 0 -23899890.231 -8850646.313 -1466193.023 10 0 60482 26100.00000 0 -23938690.761 -8699048.261 1745950.519 10 0 60482 27000.00000 0 -23588786.746 -8436540.484 4924261.365 10 0 60482 27900.00000 0 -22844610.700 -8118575.958 8007168.171 10 0 60482 28800.00000 0 -21713860.169 -7801296.453 10934963.656 10 0 60482 29700.00000 0 -20217299.405 -7538954.277 13650952.217 10 0 60482 30600.00000 0 -18388033.327 -7381423.929 16102538.587 10 0 60482 31500.00000 0 -16270283.708 -7371908.121 18242237.251 10 0 60482 32400.00000 0 -13917717.879 -7544934.390 20028584.018 10 0 60482 33300.00000 0 -11391398.506 -7924726.357 21426932.969 10 0 60482 34200.00000 0 -8757438.489 -8524018.211 22410124.167 10 0 60482 35100.00000 0 -6084456.940 -9343362.648 22959009.808 10 0 60482 36000.00000 0 -3440940.347 -10370962.225 23062828.956 10 0 60482 36900.00000 0 -892616.983 -11583032.507 22719423.560 10 0 60482 37800.00000 0 1500047.834 -12944683.481 21935291.159 10 0 60482 38700.00000 0 3684132.751 -14411284.186 20725472.439 10 0 60482 39600.00000 0 5616223.636 -15930255.340 19113274.696 10 0 60482 40500.00000 0 7263977.926 -17443216.641 17129835.205 10 0 60482 41400.00000 0 8607225.048 -18888400.248 14813531.477 10 0 60482 42300.00000 0 9638556.923 -20203230.137 12209248.477 10 0 60482 43200.00000 0 10363383.708 -21326959.526 9367515.794 10 0 60482 44100.00000 0 10799452.275 -22203255.323 6343530.654 10 0 60482 45000.00000 0 10975847.620 -22782620.124 3196085.326 10 0 60482 45900.00000 0 10931519.488 -23024548.588 -13580.165 10 0 60482 46800.00000 0 10713396.840 -22899325.737 -3222977.250 10 0 60482 47700.00000 0 10374170.725 -22389389.735 -6369595.622 10 0 60482 48600.00000 0 9969840.463 -21490199.991 -9392132.581 10 0 60482 49500.00000 0 9557128.460 -20210572.555 -12231699.593 10 0 60482 50400.00000 0 9190874.672 -18572467.558 -14832981.148 10 0 60482 51300.00000 0 8921522.633 -16610236.902 -17145322.119 10 0 60482 52200.00000 0 8792804.885 -14369363.490 -19123721.472 10 0 60482 53100.00000 0 8839726.987 -11904744.956 -20729712.316 10 0 60482 54000.00000 0 9086936.163 -9278594.115 -21932110.918 10 0 60482 54900.00000 0 9547544.046 -6558044.369 -22707620.256 10 0 60482 55800.00000 0 10222453.355 -3812560.512 -23041276.788 10 0 60482 56700.00000 0 11100216.764 -1111263.202 -22926732.449 10 0 60482 57600.00000 0 12157433.524 1479721.498 -22366367.271 10 0 60482 58500.00000 0 13359666.696 3899777.510 -21371231.308 10 0 60482 59400.00000 0 14662841.833 6096075.214 -19960817.906 10 0 60482 60300.00000 0 16015067.844 8025515.512 -18162673.499 10 0 60482 61200.00000 0 17358803.113 9656262.145 -16011852.222 10 0 60482 62100.00000 0 18633275.602 10968800.363 -13550226.454 10 0 60482 63000.00000 0 19777055.199 11956479.977 -10825667.100 10 0 60482 63900.00000 0 20730670.310 12625522.360 -7891109.834 10 0 60482 64800.00000 0 21439159.009 12994493.354 -4803525.633 10 0 60482 65700.00000 0 21854447.947 13093266.291 -1622815.640 10 0 60482 66600.00000 0 21937459.511 12961520.414 1589348.159 10 0 60482 67500.00000 0 21659859.216 12646839.273 4770714.090 10 0 60482 68400.00000 0 21005370.374 12202490.082 7859650.950 10 0 60482 69300.00000 0 19970601.172 11684978.084 10796334.251 10 0 60482 70200.00000 0 18565349.571 11151479.069 13523896.125 10 0 60482 71100.00000 0 16812373.049 10657257.982 15989517.348 10 0 60482 72000.00000 0 14746632.330 10253181.859 18145441.083 10 0 60482 72900.00000 0 12414039.812 9983431.268 19949889.671 10 0 60482 73800.00000 0 9869763.700 9883505.968 21367867.579 10 0 60482 74700.00000 0 7176157.013 9978608.331 22371835.766 10 0 60482 75600.00000 0 4400395.922 10282472.392 22942245.038 10 0 60482 76500.00000 0 1611923.742 10796688.052 23067918.392 10 0 60482 77400.00000 0 -1120194.996 11510549.579 22746274.917 10 0 60482 78300.00000 0 -3729902.243 12401435.926 21983390.547 10 0 60482 79200.00000 0 -6156648.154 13435708.426 20793893.679 10 0 60482 80100.00000 0 -8347663.963 14570089.846 19200696.573 10 0 60482 81000.00000 0 -10259912.179 15753468.633 17234566.401 10 0 60482 81900.00000 0 -11861633.245 16929054.047 14933542.781 10 0 60482 82800.00000 0 -13133424.137 18036792.790 12342211.711 10 0 60482 83700.00000 0 -14068803.657 19015946.114 9510848.754 10 0 60482 84600.00000 0 -14674240.489 19807719.007 6494447.221 10 0 60482 85500.00000 0 -14968642.650 20357830.135 3351649.782 10 0 60483 0.00000 0 -14982329.784 20618913.133 143604.576 10 0 60483 900.00000 0 -14755531.865 20552646.516 -3067233.183 10 0 60483 1800.00000 0 -14336478.300 20131520.293 -6218325.545 10 0 60483 2700.00000 0 -13779159.153 19340163.384 -9248282.789 10 0 60483 3600.00000 0 -13140854.319 18176173.677 -12098071.410 10 0 60483 4500.00000 0 -12479536.690 16650414.440 -14712175.872 10 0 60483 5400.00000 0 -11851260.644 14786763.430 -17039689.993 10 0 60483 6300.00000 0 -11307647.742 12621324.504 -19035315.708 10 0 60483 7200.00000 0 -10893577.143 10201134.467 -20660249.091 10 0 60483 8100.00000 0 -10645179.196 7582419.335 -21882936.136 10 0 60483 9000.00000 0 -10588217.406 4828473.143 -22679683.686 10 0 60483 9900.00000 0 -10736927.134 2007248.201 -23035114.053 10 0 60483 10800.00000 0 -11093359.707 -811242.447 -22942455.167 10 0 60483 11700.00000 0 -11647258.994 -3557602.126 -22403661.480 10 0 60483 12600.00000 0 -12376474.859 -6165695.922 -21429364.152 10 0 60483 13500.00000 0 -13247895.240 -8575154.925 -20038652.419 10 0 60483 14400.00000 0 -14218856.744 -10733636.074 -18258691.163 10 0 60483 15300.00000 0 -15238973.666 -12598744.916 -16124182.843 10 0 60483 16200.00000 0 -16252307.864 -14139542.857 -13676684.768 10 0 60483 17100.00000 0 -17199787.783 -15337578.067 -10963795.395 10 0 60483 18000.00000 0 -18021774.644 -16187399.062 -8038225.762 10 0 60483 18900.00000 0 -18660667.785 -16696531.686 -4956774.277 10 0 60483 19800.00000 0 -19063439.714 -16884922.522 -1779224.831 10 0 60483 20700.00000 0 -19183994.448 -16783873.955 1432810.354 10 0 60483 21600.00000 0 -18985250.299 -16434517.147 4617080.821 10 0 60483 22500.00000 0 -18440859.853 -15885888.278 7711898.097 10 0 60483 23400.00000 0 -17536495.097 -15192689.699 10657323.106 10 0 60483 24300.00000 0 -16270643.800 -14412830.485 13396318.350 10 0 60483 25200.00000 0 -14654883.532 -13604849.768 15875843.205 10 0 60483 26100.00000 0 -12713621.337 -12825330.845 18047871.951 10 0 60483 27000.00000 0 -10483309.044 -12126414.141 19870315.681 10 0 60483 27900.00000 0 -8011165.719 -11553512.864 21307831.203 10 0 60483 28800.00000 0 -5353458.975 -11143326.669 22332502.015 10 0 60483 29700.00000 0 -2573414.853 -10922236.245 22924378.823 10 0 60483 30600.00000 0 261158.813 -10905146.076 23071869.494 10 0 60483 31500.00000 0 3080438.729 -11094824.149 22771970.866 10 0 60483 32400.00000 0 5815237.539 -11481766.936 22030337.553 10 0 60483 33300.00000 0 8399631.788 -12044596.308 20861185.649 10 0 60483 34200.00000 0 10773458.584 -12750972.993 19287032.071 10 0 60483 35100.00000 0 12884578.020 -13558989.574 17338273.293 10 0 60483 36000.00000 0 14690807.693 -14418985.864 15052610.127 10 0 60483 36900.00000 0 16161448.704 -15275711.376 12474328.348 10 0 60483 37800.00000 0 17278339.231 -16070744.595 9653447.875 10 0 60483 38700.00000 0 18036391.213 -16745067.337 6644756.108 10 0 60483 39600.00000 0 18443587.258 -17241685.266 3506743.772 10 0 60483 40500.00000 0 18520437.641 -17508183.078 300463.896 10 0 60483 41400.00000 0 18298920.243 -17499105.085 -2911663.376 10 0 60483 42300.00000 0 17820948.420 -17178058.907 -6067076.020 10 0 60483 43200.00000 0 17136432.140 -16519451.527 -9104300.344 10 0 60483 44100.00000 0 16301015.284 -15509782.463 -11964160.891 10 0 60483 45000.00000 0 15373585.974 -14148437.748 -14590945.027 10 0 60483 45900.00000 0 14413666.544 -12447949.759 -16933498.297 10 0 60483 46800.00000 0 13478794.783 -10433710.831 -18946228.198 10 0 60483 47700.00000 0 12622008.283 -8143151.949 -20589996.126 10 0 60483 48600.00000 0 11889538.971 -5624420.616 -21832879.868 10 0 60483 49500.00000 0 11318815.573 -2934613.107 -22650791.864 10 0 60483 50400.00000 0 10936858.322 -137635.167 -23027941.641 10 0 60483 51300.00000 0 10759133.131 2698219.480 -22957134.098 10 0 60483 52200.00000 0 10788912.787 5502871.784 -22439898.676 10 0 60483 53100.00000 0 11017170.998 8207132.925 -21486447.828 10 0 60483 54000.00000 0 11423012.570 10745341.776 -20115466.478 10 0 60483 54900.00000 0 11974620.380 13057855.295 -18353737.387 10 0 60483 55800.00000 0 12630678.088 15093289.177 -16235610.388 10 0 60483 56700.00000 0 13342207.664 16810416.891 -13802326.399 10 0 60483 57600.00000 0 14054743.558 18179649.585 -11101209.724 10 0 60483 58500.00000 0 14710751.339 19184036.982 -8184744.677 10 0 60483 59400.00000 0 15252188.596 19819749.403 -5109554.661 10 0 60483 60300.00000 0 15623100.117 20096022.756 -1935303.563 10 0 60483 61200.00000 0 15772138.071 20034570.596 1276459.148 10 0 60483 62100.00000 0 15654901.268 19668489.548 4463487.367 10 0 60483 63000.00000 0 15235995.235 19040705.309 7564038.531 10 0 60483 63900.00000 0 14490726.631 18202025.368 10518062.141 10 0 60483 64800.00000 0 13406360.833 17208880.726 13268354.097 10 0 60483 65700.00000 0 11982889.705 16120851.512 15761655.267 10 0 60483 66600.00000 0 10233276.875 14998080.120 17949673.707 10 0 60483 67500.00000 0 8183169.394 13898679.851 19790011.703 10 0 60483 68400.00000 0 5870086.627 12876247.016 21246980.568 10 0 60483 69300.00000 0 3342118.614 11977580.025 22292288.191 10 0 60483 70200.00000 0 656186.304 11240700.314 22905586.685 10 0 60483 71100.00000 0 -2124066.040 10693257.508 23074869.894 10 0 60483 72000.00000 0 -4930660.742 10351385.406 22796713.050 10 0 60483 72900.00000 0 -7693861.720 10219056.831 22076349.596 10 0 60483 73800.00000 0 -10344829.462 10287964.854 20927582.936 10 0 60483 74700.00000 0 -12818247.160 10537936.170 19372533.719 10 0 60483 75600.00000 0 -15054809.913 10937860.257 17441226.266 10 0 60483 76500.00000 0 -17003474.034 11447096.328 15171020.662 10 0 60483 77400.00000 0 -18623372.833 12017299.872 12605900.149 10 0 60483 78300.00000 0 -19885318.740 12594592.560 9795626.396 10 0 60483 79200.00000 0 -20772828.454 13121984.346 6794778.110 10 0 60483 80100.00000 0 -21282627.583 13541945.338 3661691.163 10 0 60483 81000.00000 0 -21424613.050 13799018.112 457320.841 10 0 60483 81900.00000 0 -21221274.513 13842358.821 -2755951.287 10 0 60483 82800.00000 0 -20706599.101 13628098.061 -5915541.722 10 0 60483 83700.00000 0 -19924505.986 13121419.760 -8959895.612 10 0 60483 84600.00000 0 -18926877.512 12298268.277 -11829698.256 10 0 60483 85500.00000 0 -17771271.013 11146609.629 -14469042.476 10 0 60484 0.00000 0 -16518409.231 9667192.087 -16826527.677 10 0 60484 900.00000 0 -15229555.849 7873771.822 -18856269.407 10 0 60484 1800.00000 0 -13963889.722 5792795.058 -20518795.898 10 0 60484 2700.00000 0 -12775987.208 3462546.822 -21781818.105 10 0 60484 3600.00000 0 -11713520.886 931803.449 -22620855.067 10 0 60484 4500.00000 0 -10815271.004 -1741955.594 -23019704.142 10 0 60484 5400.00000 0 -10109533.105 -4494701.734 -22970747.424 10 0 60484 6300.00000 0 -9612987.962 -7258287.262 -22475089.207 10 0 60484 7200.00000 0 -9330080.205 -9963050.019 -21542522.723 10 0 60484 8100.00000 0 -9252930.278 -12540484.530 -20191327.734 10 0 60484 9000.00000 0 -9361781.907 -14925868.890 -18447903.699 10 0 60484 9900.00000 0 -9625964.609 -17060738.757 -16346246.377 10 0 60484 10800.00000 0 -10005329.313 -18895106.487 -13927278.613 10 0 60484 11700.00000 0 -10452095.346 -20389334.252 -11238048.704 10 0 60484 12600.00000 0 -10913029.960 -21515584.535 -8330812.282 10 0 60484 13500.00000 0 -11331867.844 -22258789.149 -5262015.696 10 0 60484 14400.00000 0 -11651868.174 -22617097.997 -2091200.732 10 0 60484 15300.00000 0 -11818401.212 -22601790.493 1120148.038 10 0 60484 16200.00000 0 -11781455.406 -22236654.925 4309791.065 10 0 60484 17100.00000 0 -11497959.487 -21556863.034 7415933.981 10 0 60484 18000.00000 0 -10933821.870 -20607387.992 10378417.194 10 0 60484 18900.00000 0 -10065601.657 -19441032.713 13139872.400 10 0 60484 19800.00000 0 -8881740.856 -18116151.359 15646824.330 10 0 60484 20700.00000 0 -7383305.728 -16694159.375 17850717.135 10 0 60484 21600.00000 0 -5584205.472 -15236935.863 19708846.468 10 0 60484 22500.00000 0 -3510877.953 -13804226.284 21185180.106 10 0 60484 23400.00000 0 -1201454.148 -12451153.314 22251052.020 10 0 60484 24300.00000 0 1295565.681 -11225939.036 22885717.115 10 0 60484 25200.00000 0 3923071.051 -10167932.906 23076756.259 10 0 60484 26100.00000 0 6617464.526 -9306027.369 22820323.796 10 0 60484 27000.00000 0 9311063.130 -8657527.055 22121232.391 10 0 60484 27900.00000 0 11934680.113 -8227518.893 20992872.829 10 0 60484 28800.00000 0 14420281.424 -8008769.843 19456969.265 10 0 60484 29700.00000 0 16703607.696 -7982157.118 17543173.337 10 0 60484 30600.00000 0 18726653.409 -8117613.547 15288503.555 10 0 60484 31500.00000 0 20439900.118 -8375549.091 12736639.448 10 0 60484 32400.00000 0 21804210.384 -8708689.245 9937082.899 10 0 60484 33300.00000 0 22792302.675 -9064253.155 6944201.994 10 0 60484 34200.00000 0 23389744.689 -9386379.386 3816175.493 10 0 60484 35100.00000 0 23595422.654 -9618696.308 613858.332 10 0 60484 36000.00000 0 23421466.180 -9706927.338 -2600409.335 10 0 60484 36900.00000 0 22892631.411 -9601419.348 -5764025.529 10 0 60484 37800.00000 0 22045168.381 -9259485.482 -8815357.282 10 0 60484 38700.00000 0 20925220.632 -8647461.274 -11694953.633 10 0 60484 39600.00000 0 19586825.241 -7742385.162 -14346715.718 10 0 60484 40500.00000 0 18089598.558 -6533230.545 -16718999.886 10 0 60484 41400.00000 0 16496206.322 -5021635.771 -18765631.348 10 0 60484 42300.00000 0 14869725.851 -3222100.020 -20446807.858 10 0 60484 43200.00000 0 13271012.309 -1161635.898 -21729875.516 10 0 60484 44100.00000 0 11756180.501 1121107.276 -22589961.663 10 0 60484 45000.00000 0 10374308.262 3577213.064 -23010452.888 10 0 60484 45900.00000 0 9165457.679 6149303.185 -22983309.551 10 0 60484 46800.00000 0 8159096.458 8773703.082 -22509211.511 10 0 60484 47700.00000 0 7372984.513 11382877.402 -21597533.138 10 0 60484 48600.00000 0 6812570.961 13908033.956 -20266149.007 10 0 60484 49500.00000 0 6470925.030 16281787.938 -18541074.873 10 0 60484 50400.00000 0 6329201.889 18440775.859 -16455951.629 10 0 60484 51300.00000 0 6357621.932 20328111.020 -14051382.857 10 0 60484 52200.00000 0 6516920.618 21895579.139 -11374139.262 10 0 60484 53100.00000 0 6760206.338 23105483.713 -8476245.797 10 0 60484 54000.00000 0 7035146.891 23932065.457 -5413969.387 10 0 60484 54900.00000 0 7286391.545 24362437.939 -2246727.014 10 0 60484 55800.00000 0 7458126.058 24397001.778 964064.637 10 0 60484 56700.00000 0 7496652.640 24049321.449 4156175.749 10 0 60484 57600.00000 0 7352886.059 23345471.067 7267763.422 10 0 60484 58500.00000 0 6984660.742 22322877.487 10238562.249 10 0 60484 59400.00000 0 6358751.810 21028709.822 13011042.922 10 0 60484 60300.00000 0 5452524.973 19517883.030 15531517.088 10 0 60484 61200.00000 0 4255145.730 17850759.021 17751167.847 10 0 60484 62100.00000 0 2768296.586 16090640.993 19626986.821 10 0 60484 63000.00000 0 1006371.316 14301164.927 21122600.568 10 0 60484 63900.00000 0 -1003863.153 12543696.323 22208971.123 10 0 60484 64800.00000 0 -3224124.802 10874839.773 22864957.775 10 0 60484 65700.00000 0 -5605960.761 9344164.298 23077729.575 10 0 60484 66600.00000 0 -8092523.881 7992238.509 22843020.638 10 0 60484 67500.00000 0 -10620709.948 6849056.937 22165222.964 10 0 60484 68400.00000 0 -13123568.776 5932922.873 21057314.269 10 0 60484 69300.00000 0 -15532890.714 5249834.352 19540621.170 10 0 60484 70200.00000 0 -17781862.380 4793399.174 17644421.010 10 0 60484 71100.00000 0 -19807682.023 4545282.913 15405388.601 10 0 60484 72000.00000 0 -21554025.842 4476171.598 12866897.196 10 0 60484 72900.00000 0 -22973262.186 4547209.008 10078185.993 10 0 60484 73800.00000 0 -24028320.542 4711848.304 7093409.354 10 0 60484 74700.00000 0 -24694136.098 4918039.804 3970585.700 10 0 60484 75600.00000 0 -24958608.308 5110662.047 770466.385 10 0 60484 76500.00000 0 -24823032.151 5234092.414 -2444653.033 10 0 60484 77400.00000 0 -24301983.141 5234807.244 -5612155.173 10 0 60484 78300.00000 0 -23422660.402 5063899.680 -8670331.896 10 0 60484 79200.00000 0 -22223715.354 4679406.794 -11559598.771 10 0 60484 80100.00000 0 -20753615.651 4048345.532 -14223667.822 10 0 60484 81000.00000 0 -19068613.914 3148369.493 -16610654.461 10 0 60484 81900.00000 0 -17230407.675 1968974.843 -18674095.983 10 0 60484 82800.00000 0 -15303589.991 512203.053 -20373861.030 10 0 60484 83700.00000 0 -13352998.838 -1207190.213 -21676932.004 10 0 60484 84600.00000 0 -11441077.318 -3162107.958 -22558045.216 10 0 60484 85500.00000 0 -9625355.809 -5314011.212 -23000176.678 10 0 60485 0.00000 0 -7956161.713 -7614307.230 -22994864.765 10 0 60485 900.00000 0 -6474651.248 -10006169.736 -22542364.207 10 0 60485 1800.00000 0 -5211246.904 -12426712.006 -21651629.412 10 0 60485 2700.00000 0 -4184541.503 -14809426.134 -20340128.376 10 0 60485 3600.00000 0 -3400715.168 -17086783.791 -18633491.493 10 0 60485 4500.00000 0 -2853486.661 -19192891.410 -16565002.929 10 0 60485 5400.00000 0 -2524599.154 -21066089.296 -14174944.999 10 0 60485 6300.00000 0 -2384817.911 -22651386.903 -11509808.725 10 0 60485 7200.00000 0 -2395396.093 -23902633.435 -8621386.260 10 0 60485 8100.00000 0 -2509945.341 -24784334.170 -5565762.988 10 0 60485 9000.00000 0 -2676631.142 -25273037.741 -2402228.984 10 0 60485 9900.00000 0 -2840599.496 -25358237.528 807869.020 10 0 60485 10800.00000 0 -2946532.046 -25042750.637 4002312.994 10 0 60485 11700.00000 0 -2941221.658 -24342559.635 7119213.553 10 0 60485 12600.00000 0 -2776059.805 -23286124.508 10098201.535 10 0 60485 13500.00000 0 -2409331.034 -21913194.215 12881588.672 10 0 60485 14400.00000 0 -1808217.944 -20273167.775 15415475.542 10 0 60485 15300.00000 0 -950432.292 -18423073.306 17650786.122 10 0 60485 16200.00000 0 174596.588 -16425248.988 19544209.781 10 0 60485 17100.00000 0 1565026.577 -14344821.955 21059033.432 10 0 60485 18000.00000 0 3206430.880 -12247089.295 22165848.486 10 0 60485 18900.00000 0 5072158.106 -10194909.155 22843119.619 10 0 60485 19800.00000 0 7124211.068 -8246209.457 23077604.758 10 0 60485 20700.00000 0 9314609.692 -6451716.901 22864618.155 10 0 60485 21600.00000 0 11587183.434 -4852999.931 22208131.208 10 0 60485 22500.00000 0 13879720.737 -3480906.545 21120708.336 10 0 60485 23400.00000 0 16126387.949 -2354461.757 19623278.124 10 0 60485 24300.00000 0 18260318.575 -1480270.615 17744742.884 10 0 60485 25200.00000 0 20216266.087 -852451.892 15521432.742 10 0 60485 26100.00000 0 21933210.175 -453105.485 12996413.434 10 0 60485 27000.00000 0 23356807.590 -253294.164 10218659.975 10 0 60485 27900.00000 0 24441584.549 -214498.574 7242111.220 10 0 60485 28800.00000 0 25152777.926 -290484.106 4124623.193 10 0 60485 29700.00000 0 25467746.803 -429500.460 926841.356 10 0 60485 30600.00000 0 25376893.808 -576720.163 -2288985.846 10 0 60485 31500.00000 0 24884056.314 -676811.717 -5460228.280 10 0 60485 32400.00000 0 24006350.090 -676536.926 -8525105.329 10 0 60485 33300.00000 0 22773471.418 -527260.664 -11423901.732 10 0 60485 34200.00000 0 21226486.875 -187264.933 -14100142.925 10 0 60485 35100.00000 0 19416161.961 376232.592 -16501705.729 10 0 60485 36000.00000 0 17400899.424 1185442.604 -18581841.676 10 0 60485 36900.00000 0 15244374.747 2250821.371 -20300092.257 10 0 60485 37800.00000 0 13012968.873 3570392.173 -21623077.941 10 0 60485 38700.00000 0 10773106.588 5129600.368 -22525145.583 10 0 60485 39600.00000 0 8588612.565 6901708.707 -22988861.976 10 0 60485 40500.00000 0 6518195.804 8848716.513 -23005344.597 10 0 60485 41400.00000 0 4613167.312 10922764.274 -22574423.892 10 0 60485 42300.00000 0 2915485.578 13067964.702 -21704634.891 10 0 60485 43200.00000 0 1456210.175 15222583.605 -20413039.185 10 0 60485 44100.00000 0 254426.370 17321479.323 -18724881.609 10 0 60485 45000.00000 0 -683316.351 19298698.867 -16673089.007 10 0 60485 45900.00000 0 -1363030.588 21090122.475 -14297621.425 10 0 60485 46800.00000 0 -1802783.378 22636046.528 -11644688.793 10 0 60485 47700.00000 0 -2031678.089 23883597.379 -8765848.649 10 0 60485 48600.00000 0 -2088370.607 24788875.935 -5717002.654 10 0 60485 49500.00000 0 -2019183.894 25318744.135 -2557311.445 10 0 60485 50400.00000 0 -1875901.596 25452179.480 651951.013 10 0 60485 51300.00000 0 -1713334.552 25181141.849 3848581.520 10 0 60485 52200.00000 0 -1586763.319 24510917.166 6970647.384 10 0 60485 53100.00000 0 -1549364.723 23459924.204 9957678.932 10 0 60485 54000.00000 0 -1649730.903 22058993.097 12751832.163 10 0 60485 54900.00000 0 -1929585.237 20350145.842 15298999.726 10 0 60485 55800.00000 0 -2421791.167 18384929.637 17549849.456 10 0 60485 56700.00000 0 -3148737.714 16222372.075 19460771.258 10 0 60485 57600.00000 0 -4121169.781 13926642.659 20994714.910 10 0 60485 58500.00000 0 -5337512.975 11564517.004 22121903.391 10 0 60485 59400.00000 0 -6783722.289 9202748.028 22820408.590 10 0 60485 60300.00000 0 -8433662.447 6905452.146 23076578.664 10 0 60485 61200.00000 0 -10250005.833 4731617.918 22885308.868 10 0 60485 62100.00000 0 -12185612.520 2732839.609 22250150.293 10 0 60485 63000.00000 0 -14185336.992 951369.006 21183253.750 10 0 60485 63900.00000 0 -16188188.152 -581434.000 19705148.864 10 0 60485 64800.00000 0 -18129754.286 -1846187.832 17844361.371 10 0 60485 65700.00000 0 -19944793.106 -2836067.411 15636874.602 10 0 60485 66600.00000 0 -21569879.430 -3556849.794 13125444.175 10 0 60485 67500.00000 0 -22946000.031 -4026425.204 10358777.910 10 0 60485 68400.00000 0 -24020986.605 -4273793.844 7390595.871 10 0 60485 69300.00000 0 -24751683.997 -4337590.735 4278588.219 10 0 60485 70200.00000 0 -25105761.405 -4264201.060 1083290.999 10 0 60485 71100.00000 0 -25063088.995 -4105546.245 -2133097.970 10 0 60485 72000.00000 0 -24616620.522 -3916635.363 -5307939.217 10 0 60485 72900.00000 0 -23772743.505 -3752986.849 -8379382.923 10 0 60485 73800.00000 0 -22551081.135 -3668031.296 -11287586.087 10 0 60485 74700.00000 0 -20983753.653 -3710607.102 -13975890.415 10 0 60485 75600.00000 0 -19114130.034 -3922656.759 -16391936.694 10 0 60485 76500.00000 0 -16995122.625 -4337222.977 -18488692.872 10 0 60485 77400.00000 0 -14687096.866 -4976830.792 -20225375.016 10 0 60485 78300.00000 0 -12255484.400 -5852325.151 -21568242.849 10 0 60485 79200.00000 0 -9768200.250 -6962213.830 -22491254.380 10 0 60485 80100.00000 0 -7292972.660 -8292543.822 -22976567.207 10 0 60485 81000.00000 0 -4894697.427 -9817316.625 -23014877.366 10 0 60485 81900.00000 0 -2632927.043 -11499424.948 -22605589.950 10 0 60485 82800.00000 0 -559598.821 -13292071.328 -21756819.063 10 0 60485 83700.00000 0 1282904.304 -15140609.002 -20485218.026 10 0 60485 84600.00000 0 2863280.961 -16984727.661 -18815643.961 10 0 60485 85500.00000 0 4162364.654 -18760892.444 -16780664.034 99